DECAYED

CZ-5 R/B, 41839 (Decayed)

Orbit data source: Space-Track

CZ-5 R/B, 41839 was space debris in LEO originally from a launch on Thu, 03 Nov 2016 UTC launched from the Wenchang Satellite Launch Center (WSC). Debris objects in space refer to the collection of defunct objects orbiting the Earth. Examples of debris include non-operational satellites, rocket bodies, and fragments generated from explosions, collisions, or faulty payload assembly.

Not visible in the next 10 days
CZ-5 R/B details
Identifier
41839, 2016-065B
Orbit
Decayed
Last TLE update6 months ago
Origin
Flag of CNCNSA (CN / PRC)
ManufacturerCALT
MissionDecayed spacecraft
Bus & MotorCZ-5 H5-2, Unknown motor
Mass5,100 kg wet, 5,100 kg dry
Launch date (UTC)
2016-11-03 (8 years ago)
Launch vehicleUnknown
Launch site
Wenchang Satellite Launch Center (WSC)
Object type
Payload
Rocket body
Debris
Shape & HBRStep Cyl, 10.6 m
Radar Cross Section46.821 m², Large (>1 m²)

Expand to show TLE details & history

TLE from 6 months ago
0 CZ-5 R/B
1 41839U 16065B   24194.02840997  .37109488 -18354-4  78870-3 0  9991
2 41839  19.1857  91.2608 0297245  43.9485  78.8439 15.85585105119706
Epoch: 2024-07-12T00:40Z
Definitive object data (Epoch: 2024-07-12T00:40:54.621Z)
Latitude15.46635°
Longitude-81.62584°
Altitude278.663 km
Speed7.764 km/s
True Right ascension14h 36m 02s
True Declination15° 22' 19"
Sunlit
Object was in daylight at TLE epoch
Visualization observer readout
Observer readout values are unavailable because the object's trajectory could not be propagated. This is usually caused when the trajectory data is faulty or the object's orbit has decayed.
Visualization observer readout
Observer readout values are unavailable because the object's trajectory could not be propagated. This is usually caused when the trajectory data is faulty or the object's orbit has decayed.
Orbital elements
Apogee altitude519.312 km
Perigee altitude121.102 km
Semi-major axis6,698.344 km
Eccentricity0.0297245
Inclination19.1857°
RAAN91.2608°
Arg. of periapsis43.9485°
True anomaly82.20797°
Mean anomaly78.8439°
Eccentric anomaly80.52375°
Mean motion3.95906 °/min
BSTAR0.0007887
Orbital period90.93 mins
Loading maneuver chart data...
Loading historical data...
Loading historical data...
Loading historical data...
Loading historical data...
Loading historical data...
Loading historical data...
Loading historical data...
Other satellites on launch #65 in the year 2016 (2016-11-03 UTC)

CZ-5 R/B Visibility forecast

Observer location: undefined°, undefined

This satellite is decayed
Span
Click to sort rows by Start time (UTC) header in descending order
Start Az.
Max El. time (UTC)
Max El. Az.
Max El.
End time (UTC)
End Az.
|